Weather in Andimeshk

Iran     33°29′09″N   48°21′10″E
temp.,
°C
wind,
m/s
gust,
m/s
humid.,
%
clouds,
%
prec.,
mm/h
press.,
hPa
HPBL,
m
18 april, sun
sun1801:30+16ne1128100 0.0 101511
04:30+15ne1130100 0.0 101511
07:30+15ne113215 0.0 101611
10:30+21n11190 0.0 1016707
13:30+25wsw11150 0.0 10143077
16:30+26w331364 0.0 10123626
19:30+22wsw342254 0.0 101349
22:30+18w112711 0.0 101411
19 april, mon
mon1901:30+16wnw22293 0.0 101511
04:30+14wnw00400 0.0 101511
07:30+15ese004570 0.0 101611
10:30+21wsw11275 0.0 1015654
13:30+25wsw221887 0.0 10131924
16:30+25wsw2318100 0.0 10112246
19:30+22wsw113063 0.0 101211
22:30+19ese0133100 0.0 101311
20 april, tue
tue2001:30+18n1135100 0.0 101411
04:30+17nne2232100 0.0 101411
07:30+17ne2235100 0.0 101511
10:30+24e12225 0.0 1015706
13:30+27nnw121759 0.0 10132325
16:30+29wnw121557 0.0 10113298
19:30+25wnw2222100 0.0 101115
22:30+22ne0127100 0.0 101211
21 april, wed
wed2101:30+20w1131100 0.0 101311
04:30+18nne1132100 0.0 101311
07:30+19ene113585 0.0 101511
10:30+26wsw01191 0.0 1015810
13:30+29w33110 0.0 10133449
16:30+29wsw23118 0.0 10123570
19:30+25wsw232295 0.0 101245
22:30+21ene123383 0.1 101612
22 april, thu
thu2201:30+19ene113762 0.0 101611
04:30+18ene113787 0.0 101611
07:30+19e113890 0.0 101611
10:30+26e11205 0.0 1016627
13:30+29w351492 0.0 10143823
16:30+29wnw561693 0.0 10133678
19:30+25sw342382 0.0 101373
22:30+20nnw013388 0.0 101411